Location: Nairn
(57.5833°N, 3.8667°W)
Time: 02:28:54
(UTC+00:00)

Cosmos 1455 Rocket - Pass Details

Date: 07 August 2020
Orbit: 604 x 630 km, 82.5° (Epoch: 19 September)

Event Time Altitude Azimuth Distance (km) Brightness Sun altitude
Exits shadow 03:11:30 - 189° (S) 2,297 5.5 -8.2°
Reaches altitude 10° 03:12:15 10° 189° (S) 1,994 5.2 -8.1°
Maximum altitude 03:16:41 86° 103° (ESE) 637 3.2 -7.7°
Drops below altitude 10° 03:21:11 10° 14° (NNE) 2,022 6.8 -7.3°
Sets 03:23:26 0° 14° (NNE) 2,937 7.7 -7.1°
